Aérodrome :
LOGIN :

S'inscrire | Disclaimer

   EN    FR    IT 

 










Légende :    VFR   VFR Marginal   IFR   IFR Intensif   IFR Très Intensif
Visi : 
Plafond : 
>= 8 km
>= 3000ft
5 à 8 km
1000 à 3000 ft
1500m à 5 km
500 à 1000 ft
800 à 1500m
200 à 500 ft
< 800m
< 200 ft
Symboles :   Orages  Brouillard  Fortes neiges  Fortes précipitations  Vent > 20 kt
SIGMETs :   Divers  Orages  Givrage  Turbulence  Onde Orograph.  Cendres Volcan.






- Altitude de l'aérodrome : 48 ft
- Code IATA : PSR


LIBP - Abruzzo Pescara

DERNIER METAR :
  • 160820Z AUTO 27003KT 200V360 9999 NCD 12/02 Q1019

METARs EXPIRÉS :
  • 160750Z VRB02KT CAVOK 09/01 Q1020
  • 160720Z AUTO 25004KT 210V280 9999 SCT064/// 11/05 Q1020
  • 160650Z AUTO 24005KT 9999 OVC063/// 10/05 Q1020
  • 160620Z AUTO 23005KT 210V270 9999 OVC060/// 09/05 Q1020
  • 160550Z AUTO 22004KT 9999 OVC057/// 09/06 Q1020

TAF TAF LIBP
Valide du 16 à 06h jusqu'au 17 à 06h UTC


160500Z 1606/1706 VRB05KT 9999 SCT035
BECMG 1610/1612 05010KT
BECMG 1617/1619 VRB05KT



MET'MAP, la Météo Aéronautique d'un coup d'oeil ! - Copyright ORBIFLY Décembre 2007 - Disclaimer

ORBIFLY MET'MAP TEAM :

Programmation & Développement : Alexandra Zaïnal
Sur une idée originale de : Baudouin d'Aumeries
Assistance à la programmation : Marc-Olivier Méhu
Soutien technique & logistique : Manuel Goepfert

Contact : metmap@orbifly.com




SOURCES & CREDITS :

   NOAA